Tracking 22283 objects as of 28-Jan-2021
HD Live streaming from Space Station
objects crossing your sky now

OPS 0054 (DMSP 5A F1)

Track OPS 0054 (DMSP 5A F1) now!
10-day predictions
OPS 0054 (DMSP 5A F1) is classified as:


NORAD ID: 4331
Int'l Code: 1970-012A
Perigee: 747.9 km
Apogee: 831.2 km
Inclination: 98.8 °
Period: 100.5 minutes
Semi major axis: 7160 km
RCS: 0.986 m2 (medium)
Launch date: February 11, 1970
Source: United States (US)
Launch site: AIR FORCE WESTERN TEST RANGE (AFWTR)
aabbcc
Your satellite tracking list
Your tracking list is empty




NASA's NSSDC Master Catalog

Two Line Element Set (TLE):
1 04331U 70012A   21027.49825319  .00000027  00000-0  26600-4 0  9991
2 04331  98.8280 124.3505 0058132 329.6327  30.1493 14.32787578655412
Source of the keplerian elements: AFSPC